Volver al catálogo

STARLINK-3679

ActivoComunicacionesVLEO
NORAD 51973·PAYLOAD·🇺🇸 United States

Lanzado Mar 9, 2022 desde Cape Canaveral Space Force Station

Loading…

Próximos Pases (próximas 24 horas)

TLE

ActualizadoSource: CelesTrak SupGP

Época: Sep 15, 2026, 01:30 UTC

1 51973C 22025T   26258.06298611 -.00052322  00000+0 -16808-2 0  2580
2 51973  53.1571 235.6636 0001256  93.1871  31.8020 15.31761087    17

Sigue STARLINK-3679 en tiempo real con AllMySat

Download on the App Store